RYR8055 LPPT-LPPR

Flight info

Callsign RYR8055
Flight time 0h 34m
Altitude 22000
Route IXIDA DCT ABLEG
Aircraft B738/M-SDE3FGILRWY/SB1

Departure

Time 2026-05-07 18:01
Airport Lisbon Humberto Delgado Airport (LPPT)

Arrival

Time 2026-05-07 18:35
Airport Francisco de Sá Carneiro Airport (LPPR)
Time Latitude Longitude Altitude Speed Heading
2026-05-07 15:40 38.76478 -9.13640 348 ft 0 kts 168°
2026-05-07 17:42 38.76487 -9.13642 348 ft 2 kts 168°
2026-05-07 17:42 38.76502 -9.13646 348 ft 2 kts 168°
2026-05-07 17:42 38.76517 -9.13650 347 ft 2 kts 168°
2026-05-07 17:42 38.76531 -9.13656 347 ft 2 kts 143°
2026-05-07 17:43 38.76541 -9.13670 346 ft 2 kts 121°
2026-05-07 17:43 38.76547 -9.13688 346 ft 2 kts 96°
2026-05-07 17:43 38.76546 -9.13706 346 ft 2 kts 73°
2026-05-07 17:43 38.76542 -9.13725 345 ft 2 kts 79°
2026-05-07 17:44 38.76539 -9.13742 345 ft 0 kts 78°
2026-05-07 17:46 38.76546 -9.13701 346 ft 12 kts 76°
2026-05-07 17:46 38.76591 -9.13668 345 ft 9 kts 348°
2026-05-07 17:47 38.76617 -9.13740 342 ft 11 kts 262°
2026-05-07 17:47 38.76598 -9.13853 341 ft 13 kts 256°
2026-05-07 17:47 38.76573 -9.13981 339 ft 15 kts 251°
2026-05-07 17:47 38.76506 -9.14099 338 ft 15 kts 242°
2026-05-07 17:48 38.76504 -9.14197 336 ft 11 kts 291°
2026-05-07 17:48 38.76514 -9.14229 336 ft 0 kts 292°
2026-05-07 17:49 38.76515 -9.14231 336 ft 0 kts 292°
2026-05-07 17:50 38.76517 -9.14236 336 ft 2 kts 292°
2026-05-07 17:50 38.76526 -9.14265 336 ft 4 kts 292°
2026-05-07 17:50 38.76540 -9.14310 335 ft 5 kts 293°
2026-05-07 17:51 38.76558 -9.14363 335 ft 7 kts 293°
2026-05-07 17:51 38.76582 -9.14414 335 ft 4 kts 339°
2026-05-07 17:51 38.76599 -9.14412 335 ft 0 kts 23°
2026-05-07 17:52 38.76847 -9.14281 335 ft 81 kts 22°
2026-05-07 17:52 38.77518 -9.13923 355 ft 87 kts 22°
2026-05-07 17:52 38.77689 -9.13829 357 ft 1 kts 22°
2026-05-07 17:52 38.77709 -9.13819 357 ft 4 kts 24°
2026-05-07 17:53 38.77732 -9.13795 358 ft 4 kts 27°
2026-05-07 17:53 38.77803 -9.13759 359 ft 18 kts 20°
2026-05-07 17:53 38.77958 -9.13686 359 ft 27 kts 22°
2026-05-07 17:53 38.78160 -9.13578 358 ft 36 kts 24°
2026-05-07 17:54 38.78353 -9.13379 356 ft 26 kts 48°
2026-05-07 17:54 38.78343 -9.13266 350 ft 10 kts 169°
2026-05-07 17:54 38.78285 -9.13274 349 ft 5 kts 216°
2026-05-07 17:54 38.78252 -9.13300 350 ft 5 kts 208°
2026-05-07 17:55 38.78217 -9.13318 350 ft 5 kts 201°
2026-05-07 17:55 38.78180 -9.13337 350 ft 6 kts 201°
2026-05-07 17:55 38.78137 -9.13359 349 ft 7 kts 202°
2026-05-07 17:55 38.78080 -9.13390 347 ft 10 kts 204°
2026-05-07 17:56 38.78003 -9.13434 345 ft 13 kts 203°
2026-05-07 17:56 38.77919 -9.13478 347 ft 12 kts 202°
2026-05-07 17:56 38.77846 -9.13517 349 ft 11 kts 202°
2026-05-07 17:56 38.77765 -9.13560 350 ft 12 kts 203°
2026-05-07 17:57 38.77685 -9.13605 351 ft 14 kts 204°
2026-05-07 17:57 38.77623 -9.13640 350 ft 15 kts 204°
2026-05-07 17:57 38.77483 -9.13708 348 ft 17 kts 202°
2026-05-07 17:57 38.77365 -9.13773 347 ft 19 kts 203°
2026-05-07 17:58 38.77238 -9.13841 346 ft 20 kts 204°
2026-05-07 17:58 38.77105 -9.13913 346 ft 21 kts 202°
2026-05-07 17:58 38.76959 -9.13991 341 ft 24 kts 203°
2026-05-07 17:58 38.76788 -9.14090 335 ft 28 kts 200°
2026-05-07 17:59 38.76629 -9.14167 336 ft 12 kts 203°
2026-05-07 17:59 38.76598 -9.14247 336 ft 7 kts 291°
2026-05-07 17:59 38.76602 -9.14260 336 ft 0 kts 291°
2026-05-07 17:59 38.76613 -9.14295 336 ft 9 kts 292°
2026-05-07 18:00 38.76644 -9.14375 335 ft 9 kts 325°
2026-05-07 18:00 38.76706 -9.14356 335 ft 19 kts 22°
2026-05-07 18:00 38.77107 -9.14153 345 ft 100 kts 21°
2026-05-07 18:00 38.77942 -9.13690 507 ft 148 kts 21°
2026-05-07 18:01 38.78846 -9.13110 1242 ft 149 kts 24°
2026-05-07 18:01 38.79769 -9.12434 1859 ft 162 kts 27°
2026-05-07 18:01 38.80741 -9.11600 2606 ft 172 kts 33°
2026-05-07 18:01 38.81847 -9.10866 3203 ft 191 kts 13°
2026-05-07 18:02 38.84535 -9.09480 4567 ft 228 kts 30°
2026-05-07 18:02 38.85944 -9.08385 5227 ft 249 kts 33°
2026-05-07 18:02 38.87468 -9.07166 5943 ft 268 kts 34°
2026-05-07 18:03 38.89111 -9.05858 6677 ft 286 kts 34°
2026-05-07 18:03 38.90915 -9.04751 7626 ft 298 kts 20°
2026-05-07 18:03 38.92907 -9.04107 8740 ft 301 kts 13°
2026-05-07 18:03 38.94975 -9.03581 9927 ft 304 kts 13°
2026-05-07 18:04 38.97068 -9.03009 10806 ft 318 kts 14°
2026-05-07 18:04 38.99251 -9.02339 11608 ft 334 kts 15°
2026-05-07 18:04 39.01541 -9.01589 12610 ft 344 kts 15°
2026-05-07 18:04 39.03865 -9.00811 13738 ft 349 kts 15°
2026-05-07 18:05 39.06189 -9.00028 15052 ft 348 kts 15°
2026-05-07 18:05 39.08493 -8.99252 16402 ft 344 kts 14°
2026-05-07 18:05 39.10757 -8.98490 17729 ft 341 kts 14°
2026-05-07 18:05 39.13077 -8.97711 18811 ft 343 kts 14°
2026-05-07 18:06 39.15361 -8.96947 19815 ft 343 kts 13°
2026-05-07 18:06 39.17633 -8.96186 20802 ft 344 kts 13°
2026-05-07 18:06 39.19949 -8.95410 21617 ft 347 kts 13°
2026-05-07 18:06 39.22300 -8.94622 21877 ft 348 kts 12°
2026-05-07 18:07 39.24620 -8.93898 21901 ft 343 kts
2026-05-07 18:07 39.26982 -8.93397 21895 ft 339 kts
2026-05-07 18:07 39.29299 -8.93031 21890 ft 337 kts
2026-05-07 18:07 39.31620 -8.92683 21879 ft 336 kts
2026-05-07 18:08 39.33936 -8.92315 21875 ft 336 kts
2026-05-07 18:08 39.36257 -8.91919 21881 ft 337 kts
2026-05-07 18:08 39.38599 -8.91507 21885 ft 338 kts
2026-05-07 18:08 39.40921 -8.91094 21881 ft 340 kts
2026-05-07 18:09 39.43280 -8.90667 21880 ft 338 kts
2026-05-07 18:09 39.45607 -8.90241 21883 ft 340 kts
2026-05-07 18:09 39.47931 -8.89814 21882 ft 339 kts
2026-05-07 18:09 39.50265 -8.89379 21881 ft 339 kts
2026-05-07 18:10 39.52600 -8.88938 21881 ft 336 kts
2026-05-07 18:10 39.54901 -8.88502 21876 ft 336 kts
2026-05-07 18:10 39.57231 -8.88066 21897 ft 339 kts
2026-05-07 18:10 39.59591 -8.87623 21916 ft 340 kts
2026-05-07 18:11 39.61911 -8.87186 21888 ft 339 kts
2026-05-07 18:11 39.63479 -8.86894 21899 ft 339 kts
2026-05-07 18:11 39.66583 -8.86318 21917 ft 340 kts
2026-05-07 18:11 39.68938 -8.85879 21901 ft 338 kts
2026-05-07 18:12 39.71265 -8.85444 21916 ft 339 kts
2026-05-07 18:12 39.73596 -8.85009 21915 ft 339 kts
2026-05-07 18:12 39.75894 -8.84580 21908 ft 337 kts
2026-05-07 18:12 39.78245 -8.84140 21915 ft 337 kts
2026-05-07 18:13 39.80557 -8.83707 21912 ft 338 kts
2026-05-07 18:13 39.82894 -8.83267 21916 ft 339 kts
2026-05-07 18:13 39.85209 -8.82830 21914 ft 339 kts
2026-05-07 18:13 39.87534 -8.82390 21908 ft 338 kts
2026-05-07 18:14 39.89800 -8.81961 21928 ft 340 kts
2026-05-07 18:14 39.92151 -8.81516 21920 ft 334 kts
2026-05-07 18:14 39.94443 -8.81081 21913 ft 334 kts
2026-05-07 18:14 39.96719 -8.80652 21911 ft 334 kts
2026-05-07 18:15 39.99044 -8.80216 21909 ft 337 kts
2026-05-07 18:15 40.01351 -8.79783 21909 ft 339 kts
2026-05-07 18:15 40.03641 -8.79347 21904 ft 325 kts
2026-05-07 18:15 40.05831 -8.78927 21917 ft 310 kts
2026-05-07 18:16 40.07937 -8.78524 21898 ft 297 kts
2026-05-07 18:16 40.09919 -8.78146 21876 ft 285 kts
2026-05-07 18:16 40.11882 -8.77776 21412 ft 290 kts
2026-05-07 18:16 40.13908 -8.77399 20848 ft 300 kts
2026-05-07 18:17 40.15991 -8.77009 20287 ft 306 kts
2026-05-07 18:17 40.18130 -8.76605 19551 ft 315 kts
2026-05-07 18:17 40.20330 -8.76187 18745 ft 323 kts
2026-05-07 18:17 40.22563 -8.75762 17864 ft 332 kts
2026-05-07 18:18 40.24858 -8.75326 17049 ft 338 kts
2026-05-07 18:18 40.27157 -8.74888 16453 ft 334 kts
2026-05-07 18:18 40.29458 -8.74450 15867 ft 331 kts
2026-05-07 18:18 40.31721 -8.74019 15380 ft 329 kts
2026-05-07 18:19 40.33978 -8.73588 14922 ft 327 kts
2026-05-07 18:19 40.36192 -8.73165 14597 ft 316 kts
2026-05-07 18:19 40.38315 -8.72762 14400 ft 302 kts
2026-05-07 18:19 40.40374 -8.72369 14147 ft 289 kts
2026-05-07 18:20 40.42337 -8.71994 13712 ft 285 kts
2026-05-07 18:20 40.44284 -8.71620 13263 ft 283 kts
2026-05-07 18:20 40.45577 -8.71372 12946 ft 281 kts
2026-05-07 18:20 40.48104 -8.70888 12553 ft 269 kts
2026-05-07 18:21 40.49925 -8.70541 12350 ft 257 kts
2026-05-07 18:21 40.51663 -8.70209 12038 ft 254 kts
2026-05-07 18:21 40.53420 -8.69871 11665 ft 253 kts
2026-05-07 18:21 40.55149 -8.69538 11262 ft 253 kts
2026-05-07 18:22 40.56890 -8.69204 10949 ft 249 kts
2026-05-07 18:22 40.58026 -8.68986 10906 ft 247 kts 10°
2026-05-07 18:22 40.60203 -8.68569 10794 ft 233 kts
2026-05-07 18:22 40.61857 -8.68250 10205 ft 244 kts 10°
2026-05-07 18:23 40.63531 -8.67924 9750 ft 248 kts
2026-05-07 18:23 40.65231 -8.67597 9372 ft 246 kts
2026-05-07 18:23 40.66909 -8.67276 9096 ft 243 kts
2026-05-07 18:23 40.68561 -8.66962 9039 ft 231 kts
2026-05-07 18:24 40.70110 -8.66667 9015 ft 220 kts
2026-05-07 18:24 40.71611 -8.66379 8786 ft 220 kts
2026-05-07 18:24 40.73140 -8.66081 8571 ft 218 kts
2026-05-07 18:24 40.74597 -8.65800 8517 ft 205 kts
2026-05-07 18:25 40.75941 -8.65492 8434 ft 195 kts 19°
2026-05-07 18:25 40.77203 -8.64782 8203 ft 195 kts 29°
2026-05-07 18:25 40.78408 -8.63984 8026 ft 193 kts 29°
2026-05-07 18:25 40.79608 -8.63193 7823 ft 193 kts 29°
2026-05-07 18:26 40.80812 -8.62401 7623 ft 193 kts 29°
2026-05-07 18:26 40.82012 -8.61609 7430 ft 192 kts 29°
2026-05-07 18:26 40.83207 -8.60821 7242 ft 192 kts 28°
2026-05-07 18:26 40.84462 -8.60298 7043 ft 192 kts
2026-05-07 18:27 40.85816 -8.60274 6835 ft 193 kts 357°
2026-05-07 18:27 40.87140 -8.60365 6635 ft 193 kts 357°
2026-05-07 18:27 40.88489 -8.60459 6386 ft 196 kts 357°
2026-05-07 18:27 40.89419 -8.60525 6133 ft 203 kts 357°
2026-05-07 18:28 40.91334 -8.60661 5750 ft 208 kts 356°
2026-05-07 18:28 40.92762 -8.60755 5583 ft 205 kts 356°
2026-05-07 18:28 40.94182 -8.60843 5363 ft 205 kts 356°
2026-05-07 18:28 40.95610 -8.60923 5167 ft 203 kts 356°
2026-05-07 18:29 40.97018 -8.60995 4990 ft 201 kts 356°
2026-05-07 18:29 40.98411 -8.61125 4785 ft 200 kts 349°
2026-05-07 18:29 40.99764 -8.61497 4611 ft 196 kts 345°
2026-05-07 18:29 41.01080 -8.61887 4436 ft 191 kts 346°
2026-05-07 18:30 41.02388 -8.62246 4128 ft 193 kts 347°
2026-05-07 18:30 41.03670 -8.62586 3991 ft 183 kts 347°
2026-05-07 18:30 41.04874 -8.62905 3991 ft 171 kts 347°
2026-05-07 18:30 41.06030 -8.63222 3896 ft 168 kts 347°
2026-05-07 18:31 41.07168 -8.63538 3675 ft 166 kts 347°
2026-05-07 18:31 41.08326 -8.63827 3426 ft 169 kts 348°
2026-05-07 18:31 41.09481 -8.64110 3154 ft 169 kts 347°
2026-05-07 18:31 41.10640 -8.64416 2888 ft 169 kts 347°
2026-05-07 18:32 41.11799 -8.64724 2617 ft 170 kts 347°
2026-05-07 18:32 41.12956 -8.65026 2329 ft 171 kts 347°
2026-05-07 18:32 41.14122 -8.65329 2070 ft 167 kts 347°
2026-05-07 18:32 41.15195 -8.65608 1947 ft 148 kts 347°
2026-05-07 18:33 41.16190 -8.65871 1711 ft 139 kts 348°
2026-05-07 18:33 41.17147 -8.66100 1679 ft 145 kts 348°
2026-05-07 18:33 41.18126 -8.66355 1340 ft 140 kts 346°
2026-05-07 18:33 41.19053 -8.66618 1154 ft 136 kts 346°
2026-05-07 18:34 41.19986 -8.66866 919 ft 134 kts 346°
2026-05-07 18:34 41.20909 -8.67102 740 ft 135 kts 347°
2026-05-07 18:34 41.21820 -8.67338 545 ft 128 kts 347°
2026-05-07 18:34 41.22689 -8.67567 381 ft 126 kts 347°
2026-05-07 18:35 41.23555 -8.67796 243 ft 131 kts 346°
2026-05-07 18:35 41.24385 -8.68016 203 ft 100 kts 348°
2026-05-07 18:35 41.24874 -8.68144 187 ft 49 kts 347°
2026-05-07 18:35 41.25147 -8.68157 177 ft 32 kts 11°
2026-05-07 18:36 41.25291 -8.68071 174 ft 14 kts 72°
2026-05-07 18:36 41.25223 -8.68004 176 ft 13 kts 169°
2026-05-07 18:36 41.25138 -8.67981 179 ft 12 kts 168°
2026-05-07 18:36 41.25014 -8.67949 184 ft 24 kts 169°
2026-05-07 18:37 41.24841 -8.67886 191 ft 24 kts 150°
2026-05-07 18:37 41.24690 -8.67808 197 ft 22 kts 169°
2026-05-07 18:37 41.24540 -8.67771 203 ft 25 kts 169°
2026-05-07 18:37 41.24348 -8.67721 209 ft 27 kts 163°
2026-05-07 18:38 41.24245 -8.67603 216 ft 17 kts 125°
2026-05-07 18:38 41.24181 -8.67569 219 ft 10 kts 171°
2026-05-07 18:38 41.24095 -8.67546 221 ft 13 kts 168°
2026-05-07 18:38 41.23980 -8.67517 224 ft 19 kts 169°
2026-05-07 18:39 41.23851 -8.67480 226 ft 12 kts 169°
2026-05-07 18:39 41.23824 -8.67460 227 ft 4 kts 104°
2026-05-07 18:39 41.23824 -8.67426 228 ft 3 kts 78°
2026-05-07 18:39 41.23829 -8.67397 230 ft 2 kts 78°
2026-05-07 18:40 41.23831 -8.67385 230 ft 0 kts 78°